Time,TemperatureF,DewpointF,PressureIn,WindDirection,WindDirectionDegrees,WindSpeedMPH,WindSpeedGustMPH,Humidity,HourlyPrecipIn,Conditions,Clouds,dailyrainin,SoftwareType,DateUTC
2014-10-01 00:13:00,61.8,58.0,30.10,South,191,0.0,3.0,86,0.00,,,0.00,weatherlink.com 1.10,2014-09-30 14:13:00,
2014-10-01 00:28:00,61.3,57.0,30.10,ESE,118,0.0,2.0,86,0.00,,,0.00,weatherlink.com 1.10,2014-09-30 14:28:00,
2014-10-01 00:43:00,60.4,57.0,30.09,SE,141,1.0,2.0,87,0.00,,,0.00,weatherlink.com 1.10,2014-09-30 14:43:00,
2014-10-01 00:58:00,60.0,56.0,30.09,ENE,75,0.0,2.0,87,0.00,,,0.00,weatherlink.com 1.10,2014-09-30 14:58:00,
2014-10-01 01:13:00,59.1,56.0,30.09,ENE,61,0.0,2.0,88,0.00,,,0.00,weatherlink.com 1.10,2014-09-30 15:13:00,
2014-10-01 01:28:00,59.1,56.0,30.08,ENE,63,0.0,2.0,90,0.00,,,0.00,weatherlink.com 1.10,2014-09-30 15:28:00,
2014-10-01 01:43:00,58.8,56.0,30.08,NE,53,1.0,2.0,90,0.00,,,0.00,weatherlink.com 1.10,2014-09-30 15:43:00,
2014-10-01 01:58:00,58.6,56.0,30.07,ENE,70,1.0,2.0,91,0.00,,,0.00,weatherlink.com 1.10,2014-09-30 15:58:00,
2014-10-01 02:14:00,58.4,56.0,30.07,NE,55,2.0,2.0,91,0.00,,,0.00,weatherlink.com 1.10,2014-09-30 16:14:00,
2014-10-01 02:29:00,57.8,55.0,30.06,NE,55,1.0,2.0,91,0.00,,,0.00,weatherlink.com 1.10,2014-09-30 16:29:00,
2014-10-01 02:44:00,58.0,56.0,30.06,East,86,1.0,2.0,92,0.00,,,0.00,weatherlink.com 1.10,2014-09-30 16:44:00,
2014-10-01 02:59:00,57.4,55.0,30.06,NE,49,1.0,2.0,92,0.00,,,0.00,weatherlink.com 1.10,2014-09-30 16:59:00,
2014-10-01 03:14:00,57.6,56.0,30.06,East,95,1.0,2.0,93,0.00,,,0.00,weatherlink.com 1.10,2014-09-30 17:14:00,
2014-10-01 03:29:00,57.8,56.0,30.06,NE,53,1.0,2.0,93,0.00,,,0.00,weatherlink.com 1.10,2014-09-30 17:29:00,
2014-10-01 03:44:00,57.3,55.0,30.06,NE,55,1.0,2.0,93,0.00,,,0.00,weatherlink.com 1.10,2014-09-30 17:44:00,
2014-10-01 03:59:00,57.3,55.0,30.06,East,87,1.0,2.0,93,0.00,,,0.00,weatherlink.com 1.10,2014-09-30 17:59:00,
2014-10-01 04:14:00,57.2,55.0,30.06,East,94,0.0,2.0,93,0.00,,,0.00,weatherlink.com 1.10,2014-09-30 18:14:00,
2014-10-01 04:29:00,56.9,55.0,30.06,SW,217,1.0,2.0,93,0.00,,,0.00,weatherlink.com 1.10,2014-09-30 18:29:00,
2014-10-01 04:44:00,56.8,55.0,30.07,SE,141,1.0,2.0,93,0.00,,,0.00,weatherlink.com 1.10,2014-09-30 18:44:00,
2014-10-01 04:59:00,56.9,55.0,30.07,NE,34,1.0,3.0,93,0.00,,,0.00,weatherlink.com 1.10,2014-09-30 18:59:00,
2014-10-01 05:14:00,56.0,54.0,30.08,ENE,59,2.0,2.0,93,0.00,,,0.00,weatherlink.com 1.10,2014-09-30 19:14:00,
2014-10-01 05:29:00,55.8,54.0,30.08,NE,44,2.0,2.0,94,0.00,,,0.00,weatherlink.com 1.10,2014-09-30 19:29:00,
2014-10-01 05:44:00,55.3,54.0,30.08,East,82,1.0,2.0,94,0.00,,,0.00,weatherlink.com 1.10,2014-09-30 19:44:00,
2014-10-01 05:59:00,55.2,54.0,30.08,SE,142,0.0,3.0,94,0.00,,,0.00,weatherlink.com 1.10,2014-09-30 19:59:00,
2014-10-01 06:14:00,56.3,55.0,30.08,East,96,1.0,2.0,95,0.00,,,0.00,weatherlink.com 1.10,2014-09-30 20:14:00,
2014-10-01 06:29:00,57.1,56.0,30.09,NE,36,1.0,2.0,95,0.00,,,0.00,weatherlink.com 1.10,2014-09-30 20:29:00,
2014-10-01 06:44:00,58.9,57.0,30.09,ESE,118,2.0,3.0,94,0.00,,,0.00,weatherlink.com 1.10,2014-09-30 20:44:00,
2014-10-01 06:59:00,61.5,59.0,30.09,ESE,105,2.0,4.0,90,0.00,,,0.00,weatherlink.com 1.10,2014-09-30 20:59:00,
2014-10-01 07:14:00,62.9,58.0,30.11,SSE,153,1.0,4.0,85,0.00,,,0.00,weatherlink.com 1.10,2014-09-30 21:14:00,
2014-10-01 07:29:00,65.4,59.0,30.11,South,169,3.0,5.0,80,0.00,,,0.00,weatherlink.com 1.10,2014-09-30 21:29:00,
2014-10-01 07:44:00,67.1,59.0,30.11,SSE,152,4.0,6.0,75,0.00,,,0.00,weatherlink.com 1.10,2014-09-30 21:44:00,
2014-10-01 07:59:00,68.5,60.0,30.12,ESE,113,2.0,5.0,73,0.00,,,0.00,weatherlink.com 1.10,2014-09-30 21:59:00,
2014-10-01 08:15:00,69.5,61.0,30.12,SE,137,2.0,4.0,73,0.00,,,0.00,weatherlink.com 1.10,2014-09-30 22:15:00,
2014-10-01 08:30:00,70.6,60.0,30.12,SE,133,4.0,6.0,70,0.00,,,0.00,weatherlink.com 1.10,2014-09-30 22:30:00,
2014-10-01 08:45:00,71.9,61.0,30.12,SE,134,2.0,8.0,68,0.00,,,0.00,weatherlink.com 1.10,2014-09-30 22:45:00,
2014-10-01 09:01:00,73.4,61.0,30.12,ESE,104,4.0,10.0,65,0.00,,,0.00,weatherlink.com 1.10,2014-09-30 23:01:00,
2014-10-01 09:15:00,74.6,61.0,30.12,ENE,74,3.0,10.0,62,0.00,,,0.00,weatherlink.com 1.10,2014-09-30 23:15:00,
2014-10-01 09:30:00,74.3,60.0,30.12,SSE,159,3.0,11.0,61,0.00,,,0.00,weatherlink.com 1.10,2014-09-30 23:30:00,
2014-10-01 09:45:00,74.7,60.0,30.11,ESE,102,7.0,11.0,60,0.00,,,0.00,weatherlink.com 1.10,2014-09-30 23:45:00,
2014-10-01 10:01:00,75.8,60.0,30.11,East,98,8.0,10.0,58,0.00,,,0.00,weatherlink.com 1.10,2014-10-01 00:01:00,
2014-10-01 10:15:00,76.0,60.0,30.11,ESE,112,2.0,10.0,58,0.00,,,0.00,weatherlink.com 1.10,2014-10-01 00:15:00,
2014-10-01 10:30:00,76.9,60.0,30.11,SSE,157,7.0,11.0,57,0.00,,,0.00,weatherlink.com 1.10,2014-10-01 00:30:00,
2014-10-01 10:45:00,76.7,60.0,30.10,SSE,162,3.0,12.0,57,0.00,,,0.00,weatherlink.com 1.10,2014-10-01 00:45:00,
2014-10-01 11:01:00,76.5,60.0,30.09,SSE,149,6.0,10.0,57,0.00,,,0.00,weatherlink.com 1.10,2014-10-01 01:01:00,
2014-10-01 11:15:00,77.1,59.0,30.08,East,89,6.0,11.0,54,0.00,,,0.00,weatherlink.com 1.10,2014-10-01 01:15:00,
2014-10-01 11:30:00,77.8,59.0,30.08,SE,130,2.0,10.0,52,0.00,,,0.00,weatherlink.com 1.10,2014-10-01 01:30:00,
2014-10-01 11:45:00,78.2,59.0,30.07,ESE,110,7.0,10.0,52,0.00,,,0.00,weatherlink.com 1.10,2014-10-01 01:45:00,
2014-10-01 12:01:00,78.3,59.0,30.06,WSW,251,2.0,9.0,52,0.00,,,0.00,weatherlink.com 1.10,2014-10-01 02:01:00,
2014-10-01 12:15:00,78.8,59.0,30.05,ESE,103,8.0,13.0,51,0.00,,,0.00,weatherlink.com 1.10,2014-10-01 02:15:00,
2014-10-01 12:30:00,79.2,57.0,30.04,South,179,4.0,13.0,46,0.00,,,0.00,weatherlink.com 1.10,2014-10-01 02:30:00,
2014-10-01 12:45:00,79.8,54.0,30.04,ESE,121,8.0,13.0,41,0.00,,,0.00,weatherlink.com 1.10,2014-10-01 02:45:00,
2014-10-01 13:01:00,80.4,52.0,30.04,South,191,2.0,13.0,37,0.00,,,0.00,weatherlink.com 1.10,2014-10-01 03:01:00,
2014-10-01 13:16:00,80.4,50.0,30.03,SE,142,1.0,14.0,35,0.00,,,0.00,weatherlink.com 1.10,2014-10-01 03:16:00,
2014-10-01 13:31:00,79.5,54.0,30.02,ESE,115,3.0,11.0,41,0.00,,,0.00,weatherlink.com 1.10,2014-10-01 03:31:00,
2014-10-01 13:46:00,79.8,56.0,30.02,SE,127,9.0,13.0,44,0.00,,,0.00,weatherlink.com 1.10,2014-10-01 03:46:00,
2014-10-01 14:01:00,79.6,51.0,30.01,SE,128,4.0,17.0,37,0.00,,,0.00,weatherlink.com 1.10,2014-10-01 04:01:00,
2014-10-01 14:16:00,80.4,49.0,30.00,East,91,6.0,15.0,33,0.00,,,0.00,weatherlink.com 1.10,2014-10-01 04:16:00,
2014-10-01 14:31:00,80.5,52.0,30.00,ENE,75,7.0,13.0,37,0.00,,,0.00,weatherlink.com 1.10,2014-10-01 04:31:00,
2014-10-01 14:46:00,81.1,55.0,29.99,East,82,3.0,11.0,40,0.00,,,0.00,weatherlink.com 1.10,2014-10-01 04:46:00,
2014-10-01 15:01:00,80.8,55.0,29.99,ESE,120,8.0,13.0,41,0.00,,,0.00,weatherlink.com 1.10,2014-10-01 05:01:00,
2014-10-01 15:17:00,81.0,55.0,29.99,East,87,9.0,13.0,41,0.00,,,0.00,weatherlink.com 1.10,2014-10-01 05:17:00,
2014-10-01 15:31:00,81.0,56.0,29.98,SSE,155,6.0,12.0,42,0.00,,,0.00,weatherlink.com 1.10,2014-10-01 05:31:00,
2014-10-01 15:46:00,80.9,54.0,29.98,South,173,5.0,10.0,40,0.00,,,0.00,weatherlink.com 1.10,2014-10-01 05:46:00,
2014-10-01 16:01:00,80.6,55.0,29.98,ESE,112,5.0,12.0,41,0.00,,,0.00,weatherlink.com 1.10,2014-10-01 06:01:00,
2014-10-01 16:16:00,80.5,57.0,29.98,ESE,109,8.0,12.0,44,0.00,,,0.00,weatherlink.com 1.10,2014-10-01 06:16:00,
2014-10-01 16:31:00,80.0,57.0,29.98,ESE,119,10.0,13.0,45,0.00,,,0.00,weatherlink.com 1.10,2014-10-01 06:31:00,
2014-10-01 16:46:00,79.4,57.0,29.98,ESE,113,7.0,13.0,46,0.00,,,0.00,weatherlink.com 1.10,2014-10-01 06:46:00,
2014-10-01 17:16:00,78.7,57.0,29.98,ESE,105,2.0,11.0,48,0.00,,,0.00,weatherlink.com 1.10,2014-10-01 07:16:00,
2014-10-01 17:31:00,77.8,59.0,29.98,ESE,115,4.0,9.0,52,0.00,,,0.00,weatherlink.com 1.10,2014-10-01 07:31:00,
2014-10-01 17:46:00,76.3,60.0,29.99,ESE,114,3.0,7.0,57,0.00,,,0.00,weatherlink.com 1.10,2014-10-01 07:46:00,
2014-10-01 18:01:00,74.5,60.0,29.99,East,85,3.0,5.0,61,0.00,,,0.00,weatherlink.com 1.10,2014-10-01 08:01:00,
2014-10-01 18:16:00,73.4,60.0,30.00,East,93,1.0,4.0,64,0.00,,,0.00,weatherlink.com 1.10,2014-10-01 08:16:00,
2014-10-01 18:31:00,72.0,60.0,30.00,ESE,111,1.0,4.0,67,0.00,,,0.00,weatherlink.com 1.10,2014-10-01 08:31:00,
2014-10-01 18:46:00,71.5,61.0,30.01,SE,143,1.0,4.0,70,0.00,,,0.00,weatherlink.com 1.10,2014-10-01 08:46:00,
2014-10-01 19:02:00,70.4,61.0,30.01,ESE,115,1.0,3.0,72,0.00,,,0.00,weatherlink.com 1.10,2014-10-01 09:02:00,
2014-10-01 19:17:00,69.4,61.0,30.02,ESE,115,2.0,3.0,74,0.00,,,0.00,weatherlink.com 1.10,2014-10-01 09:17:00,
2014-10-01 19:32:00,69.0,61.0,30.02,ENE,76,1.0,2.0,75,0.00,,,0.00,weatherlink.com 1.10,2014-10-01 09:32:00,
2014-10-01 19:47:00,68.4,61.0,30.02,SE,142,0.0,2.0,76,0.00,,,0.00,weatherlink.com 1.10,2014-10-01 09:47:00,
2014-10-01 20:01:00,68.0,61.0,30.02,ESE,115,0.0,1.0,77,0.00,,,0.00,weatherlink.com 1.10,2014-10-01 10:01:00,
2014-10-01 20:16:00,67.8,60.0,30.03,SSE,166,1.0,2.0,77,0.00,,,0.00,weatherlink.com 1.10,2014-10-01 10:16:00,
2014-10-01 20:31:00,66.8,60.0,30.03,SSE,152,1.0,2.0,79,0.00,,,0.00,weatherlink.com 1.10,2014-10-01 10:31:00,
2014-10-01 20:46:00,66.5,61.0,30.04,SSE,168,0.0,2.0,81,0.00,,,0.00,weatherlink.com 1.10,2014-10-01 10:46:00,
2014-10-01 21:02:00,65.9,60.0,30.04,SE,126,0.0,1.0,82,0.00,,,0.00,weatherlink.com 1.10,2014-10-01 11:02:00,
2014-10-01 21:17:00,65.0,60.0,30.04,SE,129,0.0,1.0,84,0.00,,,0.00,weatherlink.com 1.10,2014-10-01 11:17:00,
2014-10-01 21:32:00,64.5,60.0,30.04,ESE,122,0.0,1.0,85,0.00,,,0.00,weatherlink.com 1.10,2014-10-01 11:32:00,
2014-10-01 21:47:00,64.3,60.0,30.04,SE,125,0.0,1.0,86,0.00,,,0.00,weatherlink.com 1.10,2014-10-01 11:47:00,
2014-10-01 22:02:00,64.3,60.0,30.04,ESE,111,1.0,1.0,87,0.00,,,0.00,weatherlink.com 1.10,2014-10-01 12:02:00,
2014-10-01 22:17:00,63.9,60.0,30.03,ESE,120,1.0,1.0,88,0.00,,,0.00,weatherlink.com 1.10,2014-10-01 12:17:00,
2014-10-01 22:31:00,63.2,60.0,30.03,East,81,0.0,1.0,88,0.00,,,0.00,weatherlink.com 1.10,2014-10-01 12:31:00,
2014-10-01 22:46:00,62.6,59.0,30.03,SSE,157,0.0,1.0,87,0.00,,,0.00,weatherlink.com 1.10,2014-10-01 12:46:00,
2014-10-01 23:02:00,61.8,59.0,30.02,SE,126,0.0,2.0,89,0.00,,,0.00,weatherlink.com 1.10,2014-10-01 13:02:00,
2014-10-01 23:17:00,61.4,58.0,30.03,ENE,59,0.0,1.0,89,0.00,,,0.00,weatherlink.com 1.10,2014-10-01 13:17:00,
2014-10-01 23:32:00,60.4,58.0,30.03,East,82,1.0,2.0,90,0.00,,,0.00,weatherlink.com 1.10,2014-10-01 13:32:00,